Flag for U.S.A. Weather past 2 weeks in Boston, Massachusetts, U.S.A.

Now
74 °F

Partly sunny.


Feels Like: 74 °F
Forecast: 63 / 76 °F
Wind: 10 mph from South

Location: Logan International Airport

Current Time: Jul 1, 2015 at 1:29:05 PM

Latest Report: Jul 1, 2015 at 12:54 PM


Visibility: 10 mi

Pressure: 29.72 "Hg

Humidity: 82%

Dew point: 68 °F

Location of BostonLocation

Historic Weather in Boston — Graph

°F

Boston temperature yesterday

Maximum temperature yesterday: 74 °F (at 11:54 AM)
Minimum temperature yesterday: 60 °F (at 4:54 AM)
Average temperature yesterday: 68 °F

Past Weeks' High & Low Weather Summary

 TemperatureHumidityPressure
High86 °F (Jun 23, 4:54 PM)100% (Jun 21, 6:54 AM)30.19 "Hg (Jun 21, 6:54 AM)
Low53 °F (Jun 28, 10:54 PM)29% (Jun 24, 6:54 PM)29.63 "Hg (Jun 21, 3:54 PM)
Average67 °F73%29.93 "Hg
* Reported Jun 16 11:54 AM — Jul 1 11:54 AM, Boston, Weather by CustomWeather, © 2015

Note: Actual official high and low records may vary slightly from our data, if they occured in-between our weather recording intervals... More about our weather records

Advertising

Boston weather history for previous 24 hours

 ConditionsComfort  
Time TempWeatherWind HumidityBarometerVisibility
11:54 AM
Wed, Jul 1
68 °FLow clouds.7 mph93%29.75 "Hg10 mi
11:02 AM66 °FMostly cloudy.8 mph94%29.77 "Hg10 mi
10:54 AM66 °FMore clouds than sun.7 mph93%29.77 "Hg8 mi
9:54 AM64 °FLight rain. Fog.20 mph100%29.77 "Hg1 mi
8:54 AM65 °FHeavy rain. Fog.10 mph97%29.84 "Hg3 mi
7:54 AM65 °FHeavy rain. Fog.10 mph94%29.86 "Hg4 mi
6:54 AM64 °FLight rain. Mostly cloudy.6 mph94%29.85 "Hg10 mi
5:54 AM63 °FPartly cloudy.7 mph97%29.85 "Hg8 mi
4:54 AM63 °FPassing clouds.6 mph97%29.88 "Hg10 mi
3:54 AM63 °FClear.6 mph93%29.90 "Hg10 mi
2:54 AM64 °FPassing clouds.5 mph94%29.90 "Hg10 mi
1:54 AM65 °FPassing clouds.6 mph91%29.92 "Hg10 mi
11:54 PM
Tue, Jun 30
67 °FPassing clouds.7 mph81%29.96 "Hg10 mi
10:54 PM67 °FPartly cloudy.7 mph76%29.97 "Hg10 mi
9:54 PM70 °FPartly cloudy.10 mph64%29.97 "Hg10 mi
8:54 PM69 °FBroken clouds.8 mph68%29.95 "Hg10 mi
7:54 PM66 °FBroken clouds.No wind84%29.94 "Hg10 mi
6:54 PM68 °FScattered clouds.5 mph78%29.94 "Hg10 mi
5:54 PM68 °FScattered clouds.8 mph78%29.94 "Hg10 mi
4:54 PM68 °FScattered clouds.10 mph78%29.96 "Hg10 mi
3:54 PM69 °FBroken clouds.10 mph76%29.96 "Hg10 mi
2:54 PM71 °FScattered clouds.12 mph71%29.98 "Hg10 mi
1:54 PM72 °FScattered clouds.10 mph66%29.97 "Hg10 mi
Weather by CustomWeather, © 2015

See weather overviewHow to use our weather pages